| time (UTC) | temp F | wind direction | speed MPH | gust MPH | rain 1hr in | rain 24hr in | rain mn in | humidity % | barometer mb |
| 20260905160036 | 64 | 158 | 0.0 | 0.0 | 0.00 | 0.00 | 0.00 | 3 | 1014.2 |
| 20260905154534 | 62 | 158 | 0.0 | 0.0 | 0.00 | 0.00 | 0.00 | 3 | 1014.2 |
| 20260905153027 | 60 | 150 | 0.0 | 0.0 | 0.00 | 0.00 | 0.00 | 3 | 1014.1 |
| 20260905151506 | 58 | 144 | 0.0 | 0.0 | 0.00 | 0.00 | 0.00 | 3 | 1013.9 |
| 20260905150002 | 57 | 144 | 0.0 | 0.0 | 0.00 | 0.00 | 0.00 | 3 | 1013.7 |
| 20260905144540 | 54 | 144 | 0.0 | 0.0 | 0.00 | 0.00 | 0.00 | 3 | 1013.8 |
| 20260905143045 | 0 | 0.0 | 0.0 | 0.00 | 0.00 | 0.00 | 1013.8 | ||
| 20260905141524 | 0 | 0.0 | 0.0 | 0.00 | 0.00 | 0.00 | 1013.7 | ||
| 20260905140009 | 0 | 0.0 | 0.0 | 0.00 | 0.00 | 0.00 | 1013.6 | ||
| 20260905134557 | 0 | 0.0 | 0.0 | 0.00 | 0.00 | 0.00 | 1013.5 | ||
| 20260905133054 | 0 | 0.0 | 0.0 | 0.00 | 0.00 | 0.00 | 1013.4 | ||
| 20260905131527 | 0 | 0.0 | 0.0 | 0.00 | 0.00 | 0.00 | 1013.4 | ||
| 20260905130021 | 0 | 0.0 | 0.0 | 0.00 | 0.00 | 0.00 | 1013.2 | ||
| 20260905124504 | 0 | 0.0 | 0.0 | 0.00 | 0.00 | 0.00 | 1013.2 | ||
| 20260905123057 | 0 | 0.0 | 0.0 | 0.00 | 0.00 | 0.00 | 1013.2 | ||
| 20260905121535 | 0 | 0.0 | 0.0 | 0.00 | 0.00 | 0.00 | 1013.2 | ||
| 20260905120032 | 0 | 0.0 | 0.0 | 0.00 | 0.00 | 0.00 | 1013.3 | ||
| 20260905114510 | 0 | 0.0 | 0.0 | 0.00 | 0.00 | 0.00 | 1013.3 | ||
| 20260905113005 | 0 | 0.0 | 0.0 | 0.00 | 0.00 | 0.00 | 1013.4 | ||
| 20260905111543 | 0 | 0.0 | 0.0 | 0.00 | 0.00 | 0.00 | 1013.4 | ||
| 20260905110047 | 54 | 143 | 0.0 | 0.0 | 0.00 | 0.00 | 0.00 | 3 | 1013.4 |
| 20260905104517 | 54 | 144 | 0.0 | 0.0 | 0.00 | 0.00 | 0.00 | 3 | 1013.4 |
| 20260905103013 | 55 | 143 | 0.0 | 0.0 | 0.00 | 0.00 | 0.00 | 3 | 1013.4 |
| 20260905101604 | 55 | 144 | 0.0 | 0.0 | 0.00 | 0.00 | 0.00 | 3 | 1013.4 |
| 20260905100048 | 55 | 143 | 0.0 | 0.0 | 0.00 | 0.00 | 0.00 | 3 | 1013.5 |
| 20260905094527 | 55 | 143 | 0.0 | 0.0 | 0.00 | 0.00 | 0.00 | 3 | 1013.5 |
| 20260905093021 | 55 | 144 | 0.0 | 0.0 | 0.00 | 0.00 | 0.00 | 3 | 1013.6 |
| 20260905091607 | 56 | 144 | 0.0 | 0.0 | 0.00 | 0.00 | 0.00 | 3 | 1013.6 |
| 20260905090058 | 56 | 143 | 0.0 | 0.0 | 0.00 | 0.00 | 0.00 | 3 | 1013.7 |
| 20260905084536 | 57 | 144 | 0.0 | 0.0 | 0.00 | 0.00 | 0.00 | 3 | 1013.7 |
| 20260905083030 | 57 | 143 | 0.0 | 0.0 | 0.00 | 0.00 | 0.00 | 3 | 1013.7 |
| 20260905081509 | 58 | 144 | 0.0 | 0.0 | 0.00 | 0.00 | 0.00 | 3 | 1013.7 |
| 20260905080005 | 58 | 143 | 0.0 | 0.0 | 0.00 | 0.00 | 0.00 | 3 | 1013.7 |
| 20260905074544 | 59 | 144 | 0.0 | 0.0 | 0.00 | 0.00 | 0.00 | 3 | 1013.8 |
| 20260905073040 | 59 | 144 | 0.0 | 0.0 | 0.00 | 0.00 | 0.00 | 3 | 1013.7 |
| 20260905071518 | 59 | 144 | 0.0 | 0.0 | 0.00 | 0.00 | 0.00 | 3 | 1013.7 |
| 20260905070013 | 60 | 143 | 0.0 | 0.0 | 0.00 | 0.00 | 0.00 | 3 | 1013.7 |
| 20260905064551 | 60 | 143 | 0.0 | 0.0 | 0.00 | 0.00 | 0.00 | 3 | 1013.6 |
| 20260905063055 | 61 | 144 | 0.0 | 0.0 | 0.00 | 0.00 | 0.00 | 3 | 1013.5 |
| 20260905061525 | 61 | 144 | 0.0 | 0.0 | 0.00 | 0.00 | 0.00 | 3 | 1013.5 |
| 20260905060020 | 61 | 144 | 0.0 | 0.0 | 0.00 | 0.00 | 0.00 | 3 | 1013.6 |
| 20260905054618 | 61 | 143 | 0.0 | 0.0 | 0.00 | 0.00 | 0.00 | 3 | 1013.6 |
| 20260905053100 | 62 | 144 | 0.0 | 0.0 | 0.00 | 0.00 | 0.00 | 3 | 1013.7 |
| 20260905051557 | 63 | 143 | 0.0 | 0.0 | 0.00 | 0.00 | 0.00 | 3 | 1013.9 |
| 20260905050035 | 63 | 146 | 0.0 | 0.0 | 0.00 | 0.00 | 0.00 | 3 | 1014.0 |
| 20260905044531 | 64 | 147 | 0.0 | 0.0 | 0.00 | 0.00 | 0.00 | 3 | 1013.9 |
| 20260905043009 | 64 | 141 | 0.0 | 0.0 | 0.00 | 0.00 | 0.00 | 3 | 1013.7 |
| 20260905041507 | 65 | 195 | 0.0 | 0.0 | 0.00 | 0.00 | 0.00 | 3 | 1013.6 |
| 20260905040051 | 65 | 208 | 0.0 | 0.0 | 0.00 | 0.00 | 0.00 | 3 | 1013.4 |
| 20260905034539 | 64 | 202 | 0.0 | 1.0 | 0.00 | 0.00 | 0.00 | 7 | 1013.4 |
| 20260905033017 | 64 | 195 | 0.0 | 1.0 | 0.00 | 0.00 | 0.00 | 22 | 1013.2 |
| 20260905031513 | 64 | 168 | 0.0 | 0.0 | 0.00 | 0.00 | 0.00 | 38 | 1013.2 |
| 20260905030056 | 64 | 143 | 0.0 | 2.0 | 0.00 | 0.00 | 0.00 | 49 | 1013.1 |
| 20260905024555 | 64 | 201 | 0.0 | 0.0 | 0.00 | 0.00 | 0.00 | 59 | 1013.1 |
| 20260905023025 | 65 | 160 | 0.0 | 2.0 | 0.00 | 0.00 | 0.00 | 64 | 1013.0 |
| 20260905021521 | 67 | 257 | 0.0 | 1.0 | 0.00 | 0.00 | 0.00 | 60 | 1013.0 |
| 20260905020058 | 68 | 206 | 0.0 | 2.0 | 0.00 | 0.00 | 0.00 | 59 | 1012.9 |
| 20260905014557 | 69 | 198 | 0.0 | 2.0 | 0.00 | 0.00 | 0.00 | 58 | 1012.9 |
| 20260905013037 | 71 | 193 | 0.0 | 1.0 | 0.00 | 0.00 | 0.00 | 56 | 1012.8 |
| 20260905011528 | 72 | 236 | 0.0 | 1.0 | 0.00 | 0.00 | 0.00 | 55 | 1012.9 |
| 20260905010005 | 72 | 180 | 0.0 | 2.0 | 0.00 | 0.00 | 0.00 | 53 | 1012.7 |
| 20260905004502 | 73 | 200 | 0.0 | 3.0 | 0.00 | 0.01 | 0.00 | 54 | 1012.7 |
| 20260905003045 | 73 | 143 | 0.0 | 1.0 | 0.00 | 0.01 | 0.00 | 51 | 1012.6 |
| 20260905001535 | 73 | 158 | 0.0 | 5.0 | 0.00 | 0.01 | 0.00 | 53 | 1012.6 |
| 20260905000015 | 73 | 269 | 0.0 | 8.0 | 0.00 | 0.01 | 0.00 | 50 | 1012.7 |
| 20260904234508 | 74 | 248 | 0.0 | 2.0 | 0.00 | 0.12 | 0.00 | 50 | 1012.7 |
| 20260904233047 | 75 | 221 | 0.0 | 6.0 | 0.00 | 0.12 | 0.00 | 50 | 1012.5 |
| 20260904231542 | 75 | 190 | 0.0 | 4.0 | 0.00 | 0.12 | 0.00 | 49 | 1012.5 |
| 20260904230042 | 76 | 301 | 0.0 | 3.0 | 0.00 | 0.12 | 0.00 | 48 | 1012.5 |
| 20260904224526 | 76 | 245 | 0.0 | 3.0 | 0.00 | 0.13 | 0.00 | 48 | 1012.6 |
| 20260904223058 | 76 | 257 | 0.0 | 4.0 | 0.00 | 0.13 | 0.00 | 51 | 1012.6 |
| 20260904221552 | 75 | 280 | 0.0 | 6.0 | 0.00 | 0.13 | 0.00 | 51 | 1012.7 |
| 20260904220030 | 75 | 208 | 0.0 | 6.0 | 0.00 | 0.13 | 0.00 | 50 | 1012.8 |
| 20260904214525 | 77 | 269 | 0.0 | 7.0 | 0.00 | 0.13 | 0.00 | 49 | 1012.8 |
| 20260904213009 | 77 | 198 | 0.0 | 3.0 | 0.00 | 0.13 | 0.00 | 48 | 1012.7 |
| 20260904211504 | 76 | 194 | 0.0 | 3.0 | 0.00 | 0.13 | 0.00 | 51 | 1012.8 |
| 20260904210107 | 76 | 225 | 0.0 | 1.0 | 0.00 | 0.13 | 0.00 | 51 | 1012.8 |
| 20260904204555 | 77 | 116 | 0.0 | 0.0 | 0.00 | 0.13 | 0.00 | 45 | 1012.8 |
| 20260904203055 | 76 | 177 | 0.0 | 0.0 | 0.00 | 0.13 | 0.00 | 45 | 1012.9 |
| 20260904201546 | 74 | 214 | 0.0 | 0.0 | 0.00 | 0.13 | 0.00 | 50 | 1012.9 |
| 20260904200041 | 74 | 200 | 0.0 | 0.0 | 0.00 | 0.13 | 0.00 | 49 | 1013.0 |
| 20260904194539 | 73 | 124 | 0.0 | 0.0 | 0.00 | 0.13 | 0.00 | 53 | 1013.1 |
| 20260904193032 | 75 | 187 | 0.0 | 0.0 | 0.00 | 0.13 | 0.00 | 51 | 1013.4 |
| 20260904191510 | 73 | 326 | 0.0 | 0.0 | 0.00 | 0.13 | 0.00 | 53 | 1013.5 |
| 20260904190055 | 72 | 225 | 0.0 | 0.0 | 0.00 | 0.13 | 0.00 | 54 | 1013.5 |
| 20260904184546 | 71 | 276 | 0.0 | 0.0 | 0.00 | 0.21 | 0.00 | 54 | 1013.6 |
| 20260904183024 | 69 | 146 | 0.0 | 0.0 | 0.00 | 0.21 | 0.00 | 54 | 1013.7 |
| 20260904181520 | 69 | 185 | 0.0 | 0.0 | 0.00 | 0.21 | 0.00 | 52 | 1013.8 |
| 20260904180005 | 67 | 51 | 0.0 | 0.0 | 0.00 | 0.21 | 0.00 | 48 | 1013.8 |
| 20260904174559 | 67 | 255 | 0.0 | 0.0 | 0.00 | 0.27 | 0.00 | 45 | 1013.7 |
| 20260904173059 | 67 | 1 | 0.0 | 0.0 | 0.00 | 0.27 | 0.00 | 29 | 1013.6 |
| 20260904171551 | 67 | 10 | 0.0 | 0.0 | 0.00 | 0.27 | 0.00 | 5 | 1013.5 |
| 20260904170046 | 68 | 239 | 0.0 | 0.0 | 0.00 | 0.27 | 0.00 | 3 | 1013.6 |
| 20260904164541 | 64 | 290 | 0.0 | 0.0 | 0.00 | 0.28 | 0.00 | 3 | 1013.6 |
| 20260904163037 | 61 | 57 | 0.0 | 0.0 | 0.00 | 0.28 | 0.00 | 3 | 1013.5 |
| 20260904161533 | 60 | 326 | 0.0 | 0.0 | 0.00 | 0.28 | 0.00 | 3 | 1013.4 |